Weather History for KTEX - November, 2012

Change the Weather History Date:

Tuesday, November 6, 2012

  Actual Average (KMTJ) Record (KMTJ)
Temperature  
Mean Temperature 46 °F 42 °F  
Max Temperature 59 °F 55 °F 70 °F (2010)
Min Temperature 32 °F 28 °F 16 °F (2008)
Degree Days  
Heating Degree Days 20 23  
Month to date heating degree days 134  
Since 1 July heating degree days 725  
Cooling Degree Days 0 0  
Month to date cooling degree days 0  
Year to date cooling degree days 643  
Moisture  
Dew Point 13 °F    
Average Humidity 33    
Maximum Humidity 60    
Minimum Humidity 13    
Precipitation  
Precipitation 0.00 in 0.03 in 0.00 in (2015)
Month to date precipitation 0.18  
Year to date precipitation 10.02  
Sea Level Pressure  
Sea Level Pressure 30.44 in    
Wind  
Wind Speed 6 mph (SSE)    
Max Wind Speed 16 mph    
Max Gust Speed 23 mph    
Visibility 10 miles    
Events      
T = Trace of Precipitation, MM = Missing Value Source: NWS Daily Summary

Daily Weather History Graph

Daily Weather History Graph

Search for Another Location

Airport or City:

Trip Planner

Search our weather history database for the weather conditions in past years. The results will help you decide how hot, cold, wet, or windy it might be!

Date:

Astronomy

Nov. 06, 2012 Rise Set
Actual Time 6:43 AM MST 5:06 PM MST
Civil Twilight 6:15 AM MST 5:34 PM MST
Nautical Twilight 5:44 AM MST 6:05 PM MST
Astronomical Twilight 5:13 AM MST 6:36 PM MST
Moon 11:47 PM MST (11/6) 12:37 PM MST (11/6)
Length of Visible Light 11h 18m
Length of Day
10h 23m
Waning Gibbous, 52% of the Moon is Illuminated
Nov 6
Waning Gibbous
Nov 6
Last Quarter
Nov 13
New
Nov 20
First Quarter
Nov 28
Full

Hourly Weather History & Observations

Time (MST) Temp. Windchill Dew Point Humidity Pressure Visibility Wind Dir Wind Speed Gust Speed Precip Events Conditions
12:15 AM 33.8 °F 28.6 °F 21.2 °F 60% 30.48 in 10.0 mi East 5.8 mph - N/A   Clear
12:35 AM 35.6 °F 31.7 °F 19.4 °F 52% 30.48 in 10.0 mi SE 4.6 mph - N/A   Clear
12:55 AM 35.6 °F 32.8 °F 19.4 °F 52% 30.48 in 10.0 mi NNE 3.5 mph - N/A   Clear
1:15 AM 35.6 °F - 21.2 °F 56% 30.48 in 10.0 mi Calm Calm - N/A   Clear
1:35 AM 35.6 °F 29.2 °F 19.4 °F 52% 30.47 in 10.0 mi SE 8.1 mph - N/A   Clear
1:55 AM 33.8 °F 27.0 °F 19.4 °F 56% 30.47 in 10.0 mi ESE 8.1 mph - N/A   Clear
2:15 AM 33.8 °F 27.7 °F 19.4 °F 56% 30.47 in 10.0 mi East 6.9 mph - N/A   Clear
2:35 AM 33.8 °F 28.6 °F 17.6 °F 52% 30.46 in 10.0 mi ESE 5.8 mph - N/A   Clear
2:55 AM 33.8 °F 27.7 °F 17.6 °F 52% 30.45 in 10.0 mi ESE 6.9 mph - N/A   Clear
3:15 AM 33.8 °F - 17.6 °F 52% 30.45 in 10.0 mi Calm Calm - N/A   Clear
3:35 AM 35.6 °F 31.7 °F 17.6 °F 48% 30.45 in 10.0 mi ESE 4.6 mph - N/A   Clear
3:55 AM 33.8 °F 27.7 °F 17.6 °F 52% 30.45 in 10.0 mi SE 6.9 mph - N/A   Clear
4:15 AM 32.0 °F 27.5 °F 17.6 °F 55% 30.45 in 10.0 mi East 4.6 mph - N/A   Clear
4:35 AM 33.8 °F 28.6 °F 17.6 °F 52% 30.45 in 10.0 mi SE 5.8 mph - N/A   Clear
4:55 AM 33.8 °F 27.7 °F 17.6 °F 52% 30.45 in 10.0 mi SE 6.9 mph - N/A   Clear
5:15 AM 32.0 °F 26.4 °F 17.6 °F 55% 30.45 in 10.0 mi ESE 5.8 mph - N/A   Clear
5:35 AM 33.8 °F 28.6 °F 17.6 °F 52% 30.45 in 10.0 mi SE 5.8 mph - N/A   Clear
5:55 AM 33.8 °F 27.7 °F 17.6 °F 52% 30.45 in 10.0 mi ESE 6.9 mph - N/A   Clear
6:15 AM 33.8 °F 27.7 °F 17.6 °F 52% 30.45 in 10.0 mi SE 6.9 mph - N/A   Clear
6:35 AM 33.8 °F 27.0 °F 15.8 °F 48% 30.45 in 10.0 mi SE 8.1 mph - N/A   Clear
6:55 AM 33.8 °F 28.6 °F 15.8 °F 48% 30.46 in 10.0 mi ESE 5.8 mph - N/A   Clear
7:15 AM 33.8 °F 27.0 °F 15.8 °F 48% 30.46 in 10.0 mi SE 8.1 mph - N/A   Clear
7:35 AM 35.6 °F 30.7 °F 15.8 °F 44% 30.47 in 10.0 mi ESE 5.8 mph - N/A   Clear
7:55 AM 37.4 °F 34.9 °F 15.8 °F 41% 30.47 in 10.0 mi ESE 3.5 mph - N/A   Clear
8:15 AM 39.2 °F 35.9 °F 15.8 °F 39% 30.48 in 10.0 mi East 4.6 mph - N/A   Clear
8:35 AM 41.0 °F - 14.0 °F 33% 30.48 in 10.0 mi Calm Calm - N/A   Clear
8:55 AM 42.8 °F - 15.8 °F 34% 30.47 in 10.0 mi Calm Calm - N/A   Clear
9:15 AM 44.6 °F - 14.0 °F 29% 30.47 in 10.0 mi Calm Calm - N/A   Clear
9:35 AM 46.4 °F - 14.0 °F 27% 30.47 in 10.0 mi Calm Calm - N/A   Clear
9:55 AM 50.0 °F - 12.2 °F 22% 30.47 in 10.0 mi Calm Calm - N/A   Clear
10:15 AM 51.8 °F - 14.0 °F 22% 30.47 in 10.0 mi Calm Calm - N/A   Clear
10:35 AM 51.8 °F - 14.0 °F 22% 30.47 in 10.0 mi Calm Calm - N/A   Clear
10:55 AM 55.4 °F - 12.2 °F 18% 30.46 in 10.0 mi Calm Calm - N/A   Clear
11:15 AM 55.4 °F - 10.4 °F 17% 30.45 in 10.0 mi West 3.5 mph - N/A   Clear
11:35 AM 55.4 °F - 8.6 °F 15% 30.44 in 10.0 mi West 4.6 mph - N/A   Clear
11:55 AM 59.0 °F - 8.6 °F 14% 30.43 in 10.0 mi West 6.9 mph - N/A   Clear
12:15 PM 59.0 °F - 6.8 °F 13% 30.42 in 10.0 mi West 10.4 mph - N/A   Clear
12:35 PM 59.0 °F - 6.8 °F 13% 30.41 in 10.0 mi West 11.5 mph - N/A   Clear
12:55 PM 57.2 °F - 6.8 °F 13% 30.41 in 10.0 mi West 13.8 mph - N/A   Clear
1:15 PM 57.2 °F - 8.6 °F 14% 30.40 in 10.0 mi WSW 11.5 mph 19.6 mph N/A   Clear
1:35 PM 59.0 °F - 8.6 °F 14% 30.39 in 10.0 mi West 11.5 mph 17.3 mph N/A   Clear
1:55 PM 59.0 °F - 10.4 °F 15% 30.39 in 10.0 mi West 13.8 mph 19.6 mph N/A   Clear
2:15 PM 59.0 °F - 10.4 °F 15% 30.39 in 10.0 mi West 15.0 mph 18.4 mph N/A   Clear
2:35 PM 59.0 °F - 10.4 °F 15% 30.39 in 10.0 mi West 15.0 mph - N/A   Clear
2:55 PM 59.0 °F - 10.4 °F 15% 30.38 in 10.0 mi WSW 11.5 mph 19.6 mph N/A   Clear
3:15 PM 59.0 °F - 10.4 °F 15% 30.39 in 10.0 mi WSW 13.8 mph 18.4 mph N/A   Clear
3:35 PM 57.2 °F - 8.6 °F 14% 30.38 in 10.0 mi WSW 16.1 mph 20.7 mph N/A   Clear
3:55 PM 55.4 °F - 8.6 °F 15% 30.39 in 10.0 mi WSW 13.8 mph 23.0 mph N/A   Clear
4:15 PM 55.4 °F - 8.6 °F 15% 30.39 in 10.0 mi West 15.0 mph 19.6 mph N/A   Clear
4:35 PM 55.4 °F - 8.6 °F 15% 30.39 in 10.0 mi West 12.7 mph 20.7 mph N/A   Clear
4:55 PM 53.6 °F - 8.6 °F 16% 30.40 in 10.0 mi SW 5.8 mph - N/A   Clear
5:15 PM 51.8 °F - 10.4 °F 19% 30.40 in 10.0 mi West 6.9 mph - N/A   Clear
5:35 PM 51.8 °F - 12.2 °F 21% 30.41 in 10.0 mi SW 4.6 mph - N/A   Clear
5:55 PM 50.0 °F - 12.2 °F 22% 30.42 in 10.0 mi Calm Calm - N/A   Clear
6:15 PM 50.0 °F - 10.4 °F 20% 30.42 in 10.0 mi Calm Calm - N/A   Clear
6:35 PM 48.2 °F - 10.4 °F 22% 30.43 in 10.0 mi Calm Calm - N/A   Clear
6:55 PM 46.4 °F - 12.2 °F 25% 30.43 in 10.0 mi Calm Calm - N/A   Clear
7:15 PM 44.6 °F 40.2 °F 12.2 °F 27% 30.42 in 10.0 mi ESE 8.1 mph - N/A   Clear
7:35 PM 42.8 °F 38.6 °F 12.2 °F 29% 30.42 in 10.0 mi ESE 6.9 mph - N/A   Clear
7:55 PM 42.8 °F 39.3 °F 12.2 °F 29% 30.42 in 10.0 mi SE 5.8 mph - N/A   Clear
8:15 PM 42.8 °F 39.3 °F 12.2 °F 29% 30.43 in 10.0 mi ESE 5.8 mph - N/A   Clear
8:35 PM 41.0 °F 36.4 °F 12.2 °F 31% 30.43 in 10.0 mi ESE 6.9 mph - N/A   Clear
8:55 PM 41.0 °F 37.1 °F 12.2 °F 31% 30.43 in 10.0 mi East 5.8 mph - N/A   Clear
9:15 PM 41.0 °F 36.4 °F 12.2 °F 31% 30.43 in 10.0 mi ESE 6.9 mph - N/A   Clear
9:35 PM 39.2 °F 33.6 °F 12.2 °F 33% 30.43 in 10.0 mi SE 8.1 mph - N/A   Clear
9:55 PM 39.2 °F 34.2 °F 12.2 °F 33% 30.42 in 10.0 mi ESE 6.9 mph - N/A   Clear
10:15 PM 37.4 °F 32.1 °F 12.2 °F 36% 30.42 in 10.0 mi ESE 6.9 mph - N/A   Clear
10:35 PM 37.4 °F 32.8 °F 12.2 °F 36% 30.42 in 10.0 mi SE 5.8 mph - N/A   Clear
10:55 PM 37.4 °F 32.8 °F 12.2 °F 36% 30.41 in 10.0 mi SE 5.8 mph - N/A   Clear
11:15 PM 37.4 °F 32.8 °F 12.2 °F 36% 30.41 in 10.0 mi ESE 5.8 mph - N/A   Clear
11:35 PM 37.4 °F 34.9 °F 12.2 °F 36% 30.41 in 10.0 mi East 3.5 mph - N/A   Clear
11:55 PM 39.2 °F - 12.2 °F 33% 30.41 in 10.0 mi Calm Calm - N/A   Clear